{"data":{"norad_id":66890,"intl_designator":"2025-283N","name":"STARLINK-35885","alt_names":[],"object_type":"PAYLOAD","status":"ACTIVE","operator":null,"country":"US","launch_date":"2025-12-04","launch_site_code":"AFWTR","launch_vehicle":null,"mission":null,"orbit_class":"UNKNOWN","rcs_meters":null,"size_class":null,"mass_kg":null,"dimensions":null,"purposes":["comms"],"wikipedia_slug":null,"has_3d_model":false,"image_url":null,"decayed_at":null,"tle_current":{"epoch":"2026-05-25T04:00:03.998880Z","epoch_age_seconds":50823,"freshness":"FRESH","line1":"1 66890U 25283N   26145.16671295  .00919332  00000+0  26101-1 0  9991","line2":"2 66890  53.1601  28.8754 0001105 191.1394 183.4252 15.33332824  5853","mean_motion":15.33332824,"eccentricity":0.0001105,"inclination_deg":53.1601,"raan_deg":28.8754,"arg_perigee_deg":191.1394,"mean_anomaly_deg":183.4252,"bstar":0.026101,"rev_number":585,"period_min":93.913074673734,"perigee_km":465.12068813734,"apogee_km":466.63321522066,"semimajor_km":6844.013951679,"source":"CELESTRAK","updated_at":"2026-05-25T13:38:21.380466Z"}}}